| time (UTC) | temp F | wind direction | speed knots | gust knots | rain 1hr in | rain 24hr in | rain mn in | humidity % | barometer mb |
| 20260902060533 | 56 | 239 | 0.0 | 0.0 | 0.00 | 0.01 | 0.00 | 94 | 1022.1 |
| 20260902060034 | 56 | 221 | 0.0 | 0.0 | 0.00 | 0.01 | 0.00 | 94 | 1022.1 |
| 20260902055533 | 55 | 179 | 0.0 | 0.0 | 0.00 | 0.02 | 0.00 | 94 | 1021.9 |
| 20260902055031 | 55 | 230 | 0.0 | 0.0 | 0.00 | 0.02 | 0.00 | 94 | 1022.0 |
| 20260902054530 | 55 | 226 | 0.0 | 0.0 | 0.00 | 0.02 | 0.00 | 95 | 1022.0 |
| 20260902054029 | 55 | 209 | 0.0 | 0.0 | 0.00 | 0.02 | 0.00 | 95 | 1021.8 |
| 20260902053529 | 55 | 202 | 0.0 | 0.0 | 0.00 | 0.02 | 0.00 | 95 | 1021.8 |
| 20260902053036 | 55 | 202 | 0.0 | 0.0 | 0.00 | 0.02 | 0.00 | 95 | 1021.9 |
| 20260902052530 | 55 | 205 | 0.0 | 0.0 | 0.00 | 0.02 | 0.00 | 95 | 1021.9 |
| 20260902052028 | 55 | 205 | 0.0 | 0.0 | 0.00 | 0.02 | 0.00 | 95 | 1021.8 |
| 20260902051529 | 55 | 205 | 0.0 | 0.0 | 0.00 | 0.02 | 0.00 | 94 | 1021.9 |
| 20260902051027 | 55 | 205 | 0.0 | 0.0 | 0.00 | 0.02 | 0.00 | 94 | 1021.8 |
| 20260902050526 | 55 | 218 | 0.0 | 0.0 | 0.00 | 0.02 | 0.00 | 94 | 1021.8 |
| 20260902050025 | 55 | 140 | 0.0 | 0.0 | 0.00 | 0.02 | 0.00 | 94 | 1021.7 |
| 20260902045524 | 55 | 140 | 0.0 | 0.0 | 0.00 | 0.02 | 0.00 | 94 | 1021.5 |
| 20260902045024 | 55 | 140 | 0.0 | 0.0 | 0.00 | 0.02 | 0.00 | 94 | 1021.6 |
| 20260902044524 | 55 | 232 | 0.0 | 0.0 | 0.00 | 0.02 | 0.00 | 94 | 1021.6 |
| 20260902044024 | 55 | 232 | 0.0 | 0.0 | 0.00 | 0.02 | 0.00 | 94 | 1021.6 |
| 20260902043523 | 55 | 233 | 0.0 | 0.0 | 0.00 | 0.02 | 0.00 | 94 | 1021.6 |
| 20260902043027 | 55 | 233 | 0.0 | 0.0 | 0.00 | 0.02 | 0.00 | 94 | 1021.5 |
| 20260902042524 | 55 | 232 | 0.0 | 0.0 | 0.00 | 0.02 | 0.00 | 94 | 1021.6 |
| 20260902042023 | 55 | 232 | 0.0 | 0.0 | 0.00 | 0.02 | 0.00 | 94 | 1021.5 |
| 20260902041524 | 55 | 231 | 0.0 | 0.0 | 0.00 | 0.02 | 0.00 | 94 | 1021.3 |
| 20260902041022 | 55 | 231 | 0.0 | 0.0 | 0.00 | 0.02 | 0.00 | 94 | 1021.4 |
| 20260902040522 | 55 | 231 | 0.0 | 0.0 | 0.00 | 0.02 | 0.00 | 94 | 1021.4 |
| 20260902040022 | 55 | 231 | 0.0 | 0.0 | 0.00 | 0.02 | 0.00 | 94 | 1021.4 |
| 20260902035520 | 55 | 231 | 0.0 | 0.0 | 0.00 | 0.02 | 0.00 | 94 | 1021.4 |
| 20260902035020 | 55 | 231 | 0.0 | 0.0 | 0.00 | 0.02 | 0.00 | 94 | 1021.3 |
| 20260902034520 | 55 | 231 | 0.0 | 0.0 | 0.00 | 0.02 | 0.00 | 93 | 1021.3 |
| 20260902034019 | 55 | 231 | 0.0 | 0.0 | 0.00 | 0.02 | 0.00 | 93 | 1021.3 |
| 20260902033518 | 56 | 231 | 0.0 | 0.0 | 0.00 | 0.02 | 0.00 | 92 | 1021.3 |
| 20260902033030 | 56 | 231 | 0.0 | 0.0 | 0.00 | 0.02 | 0.00 | 92 | 1021.4 |
| 20260902032518 | 56 | 231 | 0.0 | 0.0 | 0.00 | 0.02 | 0.00 | 92 | 1021.4 |
| 20260902032018 | 56 | 231 | 0.0 | 0.0 | 0.00 | 0.02 | 0.00 | 92 | 1021.4 |
| 20260902031518 | 57 | 231 | 0.0 | 0.0 | 0.00 | 0.02 | 0.00 | 92 | 1021.3 |
| 20260902031018 | 57 | 231 | 0.0 | 0.0 | 0.00 | 0.02 | 0.00 | 91 | 1021.4 |
| 20260902030519 | 57 | 231 | 0.0 | 0.0 | 0.00 | 0.02 | 0.00 | 91 | 1021.4 |
| 20260902030019 | 57 | 231 | 0.0 | 0.0 | 0.00 | 0.02 | 0.00 | 91 | 1021.4 |
| 20260902025518 | 57 | 231 | 0.0 | 0.0 | 0.00 | 0.02 | 0.00 | 92 | 1021.4 |
| 20260902025019 | 57 | 230 | 0.0 | 0.0 | 0.00 | 0.02 | 0.00 | 92 | 1021.7 |
| 20260902024516 | 57 | 257 | 0.0 | 0.0 | 0.00 | 0.02 | 0.00 | 92 | 1021.7 |
| 20260902024016 | 56 | 253 | 0.0 | 0.0 | 0.00 | 0.02 | 0.00 | 92 | 1021.6 |
| 20260902023516 | 56 | 195 | 0.0 | 0.0 | 0.00 | 0.02 | 0.00 | 92 | 1021.6 |
| 20260902023116 | 56 | 90 | 0.0 | 0.0 | 0.00 | 0.02 | 0.00 | 92 | 1021.7 |
| 20260902022517 | 56 | 90 | 0.0 | 0.0 | 0.00 | 0.02 | 0.00 | 92 | 1021.7 |
| 20260902022016 | 56 | 90 | 0.0 | 0.0 | 0.00 | 0.02 | 0.00 | 92 | 1021.5 |
| 20260902021518 | 56 | 90 | 0.0 | 0.0 | 0.00 | 0.02 | 0.00 | 92 | 1021.6 |
| 20260902021015 | 56 | 90 | 0.0 | 0.0 | 0.00 | 0.02 | 0.00 | 92 | 1021.5 |
| 20260902020515 | 56 | 90 | 0.0 | 0.0 | 0.00 | 0.02 | 0.00 | 92 | 1021.6 |
| 20260902020016 | 56 | 90 | 0.0 | 0.0 | 0.00 | 0.02 | 0.00 | 92 | 1021.6 |
| 20260902015514 | 56 | 90 | 0.0 | 0.0 | 0.00 | 0.02 | 0.00 | 92 | 1021.5 |
| 20260902015014 | 56 | 90 | 0.0 | 0.0 | 0.00 | 0.02 | 0.00 | 92 | 1021.5 |
| 20260902014526 | 56 | 90 | 0.0 | 0.0 | 0.00 | 0.02 | 0.00 | 91 | 1021.5 |
| 20260902014017 | 56 | 90 | 0.0 | 0.0 | 0.00 | 0.02 | 0.00 | 91 | 1021.5 |
| 20260902013513 | 56 | 90 | 0.0 | 0.0 | 0.00 | 0.02 | 0.00 | 91 | 1021.6 |
| 20260902013013 | 56 | 90 | 0.0 | 0.0 | 0.00 | 0.02 | 0.00 | 91 | 1021.6 |
| 20260902012512 | 56 | 90 | 0.0 | 0.0 | 0.00 | 0.02 | 0.00 | 91 | 1021.5 |
| 20260902012012 | 56 | 90 | 0.0 | 0.0 | 0.00 | 0.02 | 0.00 | 91 | 1021.5 |
| 20260902011521 | 56 | 90 | 0.0 | 0.0 | 0.00 | 0.02 | 0.00 | 90 | 1021.4 |
| 20260902011012 | 56 | 90 | 0.0 | 0.0 | 0.00 | 0.02 | 0.00 | 90 | 1021.5 |
| 20260902010511 | 56 | 90 | 0.0 | 0.0 | 0.00 | 0.02 | 0.00 | 90 | 1021.5 |
| 20260902010010 | 56 | 90 | 0.0 | 0.0 | 0.00 | 0.02 | 0.00 | 90 | 1021.5 |
| 20260902005510 | 57 | 90 | 0.0 | 0.0 | 0.00 | 0.02 | 0.00 | 90 | 1021.6 |
| 20260902005011 | 57 | 90 | 0.0 | 0.0 | 0.00 | 0.02 | 0.00 | 90 | 1021.5 |
| 20260902004510 | 57 | 90 | 0.0 | 0.0 | 0.00 | 0.02 | 0.00 | 89 | 1021.5 |
| 20260902004008 | 57 | 90 | 0.0 | 0.0 | 0.00 | 0.02 | 0.00 | 89 | 1021.5 |
| 20260902003508 | 57 | 90 | 0.0 | 0.0 | 0.00 | 0.02 | 0.00 | 89 | 1021.6 |
| 20260902003010 | 57 | 90 | 0.0 | 0.0 | 0.00 | 0.02 | 0.00 | 89 | 1021.5 |
| 20260902002508 | 57 | 90 | 0.0 | 0.0 | 0.00 | 0.02 | 0.00 | 89 | 1021.6 |
| 20260902002007 | 57 | 90 | 0.0 | 0.0 | 0.00 | 0.02 | 0.00 | 89 | 1021.5 |
| 20260902001506 | 57 | 92 | 0.0 | 0.0 | 0.00 | 0.02 | 0.00 | 88 | 1021.6 |
| 20260902001006 | 57 | 92 | 0.0 | 0.0 | 0.00 | 0.02 | 0.00 | 88 | 1021.8 |
| 20260902000610 | 57 | 92 | 0.0 | 0.0 | 0.00 | 0.02 | 0.00 | 88 | 1021.8 |
| 20260902000006 | 58 | 92 | 0.0 | 0.0 | 0.00 | 0.02 | 0.00 | 87 | 1021.9 |
| 20260901235507 | 58 | 105 | 0.0 | 0.0 | 0.00 | 0.02 | 0.00 | 86 | 1021.8 |
| 20260901235004 | 58 | 105 | 0.0 | 0.0 | 0.00 | 0.02 | 0.00 | 85 | 1021.8 |
| 20260901234513 | 58 | 246 | 0.0 | 0.0 | 0.00 | 0.02 | 0.00 | 85 | 1021.9 |
| 20260901234004 | 59 | 200 | 0.0 | 0.0 | 0.00 | 0.02 | 0.00 | 84 | 1021.9 |
| 20260901233504 | 59 | 229 | 0.0 | 0.0 | 0.00 | 0.02 | 0.00 | 83 | 1021.7 |
| 20260901233003 | 59 | 228 | 0.0 | 0.0 | 0.00 | 0.02 | 0.00 | 83 | 1021.7 |
| 20260901232503 | 59 | 229 | 0.0 | 0.0 | 0.00 | 0.02 | 0.00 | 82 | 1022.0 |
| 20260901232008 | 59 | 248 | 0.0 | 0.0 | 0.00 | 0.02 | 0.00 | 83 | 1022.0 |
| 20260901231502 | 58 | 167 | 0.0 | 0.0 | 0.00 | 0.02 | 0.00 | 82 | 1022.0 |
| 20260901231002 | 58 | 117 | 0.0 | 0.0 | 0.00 | 0.02 | 0.00 | 83 | 1021.6 |
| 20260901230601 | 58 | 117 | 0.0 | 0.0 | 0.00 | 0.02 | 0.00 | 83 | 1021.6 |
| 20260901230137 | 58 | 117 | 0.0 | 0.0 | 0.00 | 0.02 | 0.00 | 83 | 1021.5 |
| 20260901225559 | 58 | 117 | 0.0 | 0.0 | 0.00 | 0.02 | 0.00 | 83 | 1021.5 |
| 20260901225058 | 58 | 117 | 0.0 | 0.0 | 0.00 | 0.02 | 0.00 | 83 | 1021.4 |
| 20260901224558 | 58 | 117 | 0.0 | 0.0 | 0.00 | 0.02 | 0.00 | 83 | 1021.3 |
| 20260901224057 | 58 | 117 | 0.0 | 0.0 | 0.00 | 0.02 | 0.00 | 84 | 1021.3 |
| 20260901223557 | 58 | 117 | 0.0 | 0.0 | 0.00 | 0.02 | 0.00 | 83 | 1021.3 |
| 20260901223111 | 58 | 117 | 0.0 | 0.0 | 0.00 | 0.02 | 0.00 | 84 | 1021.3 |
| 20260901222555 | 58 | 117 | 0.0 | 0.0 | 0.00 | 0.02 | 0.00 | 84 | 1021.3 |
| 20260901222055 | 58 | 117 | 0.0 | 0.0 | 0.00 | 0.02 | 0.00 | 84 | 1021.3 |
| 20260901221555 | 58 | 117 | 0.0 | 0.0 | 0.00 | 0.02 | 0.00 | 84 | 1021.2 |
| 20260901221055 | 58 | 117 | 0.0 | 0.0 | 0.00 | 0.02 | 0.00 | 84 | 1021.2 |
| 20260901220555 | 58 | 117 | 0.0 | 0.0 | 0.00 | 0.02 | 0.00 | 84 | 1021.3 |
| 20260901220059 | 58 | 117 | 0.0 | 0.0 | 0.00 | 0.02 | 0.00 | 84 | 1021.1 |
| 20260901215552 | 58 | 117 | 0.0 | 0.0 | 0.00 | 0.02 | 0.02 | 84 | 1021.0 |
| 20260901215052 | 58 | 117 | 0.0 | 0.0 | 0.00 | 0.02 | 0.02 | 84 | 1021.1 |
| 20260901214552 | 58 | 117 | 0.0 | 0.0 | 0.00 | 0.02 | 0.02 | 85 | 1021.1 |
| 20260901214052 | 58 | 117 | 0.0 | 0.0 | 0.00 | 0.02 | 0.02 | 84 | 1021.2 |
| 20260901213553 | 58 | 117 | 0.0 | 0.0 | 0.00 | 0.02 | 0.02 | 84 | 1021.2 |
| 20260901213052 | 58 | 117 | 0.0 | 0.0 | 0.00 | 0.02 | 0.02 | 84 | 1021.2 |
| 20260901212552 | 58 | 117 | 0.0 | 0.0 | 0.00 | 0.02 | 0.02 | 83 | 1021.0 |
| 20260901212052 | 58 | 117 | 0.0 | 0.0 | 0.00 | 0.02 | 0.02 | 83 | 1021.3 |
| 20260901211555 | 58 | 117 | 0.0 | 0.0 | 0.00 | 0.02 | 0.02 | 83 | 1021.2 |
| 20260901211051 | 58 | 117 | 0.0 | 0.0 | 0.00 | 0.02 | 0.02 | 83 | 1021.3 |
| 20260901210551 | 58 | 117 | 0.0 | 0.0 | 0.00 | 0.02 | 0.02 | 84 | 1021.4 |
| 20260901210058 | 58 | 117 | 0.0 | 0.0 | 0.00 | 0.02 | 0.02 | 84 | 1021.2 |
| 20260901205554 | 58 | 117 | 0.0 | 0.0 | 0.00 | 0.02 | 0.02 | 85 | 1021.2 |
| 20260901205049 | 58 | 117 | 0.0 | 0.0 | 0.00 | 0.02 | 0.02 | 85 | 1021.2 |
| 20260901204550 | 57 | 117 | 0.0 | 0.0 | 0.00 | 0.02 | 0.02 | 85 | 1021.3 |
| 20260901204050 | 57 | 117 | 0.0 | 0.0 | 0.00 | 0.02 | 0.02 | 86 | 1021.2 |
| 20260901203549 | 57 | 117 | 0.0 | 0.0 | 0.00 | 0.02 | 0.02 | 86 | 1021.2 |
| 20260901203052 | 57 | 117 | 0.0 | 0.0 | 0.00 | 0.02 | 0.02 | 86 | 1021.2 |
| 20260901202548 | 57 | 117 | 0.0 | 0.0 | 0.00 | 0.02 | 0.02 | 86 | 1021.2 |
| 20260901202049 | 57 | 117 | 0.0 | 0.0 | 0.00 | 0.02 | 0.02 | 86 | 1021.1 |
| 20260901201550 | 57 | 117 | 0.0 | 0.0 | 0.00 | 0.02 | 0.02 | 86 | 1021.1 |
| 20260901201048 | 57 | 117 | 0.0 | 0.0 | 0.00 | 0.02 | 0.02 | 85 | 1021.1 |
| 20260901200547 | 57 | 117 | 0.0 | 0.0 | 0.00 | 0.02 | 0.02 | 85 | 1021.0 |
| 20260901200058 | 57 | 117 | 0.0 | 0.0 | 0.00 | 0.02 | 0.02 | 85 | 1021.0 |
| 20260901195547 | 57 | 117 | 0.0 | 0.0 | 0.00 | 0.02 | 0.02 | 85 | 1021.1 |
| 20260901195047 | 57 | 117 | 0.0 | 0.0 | 0.00 | 0.02 | 0.02 | 85 | 1021.1 |
| 20260901194601 | 57 | 117 | 0.0 | 0.0 | 0.00 | 0.02 | 0.02 | 85 | 1021.0 |
| 20260901194046 | 58 | 117 | 0.0 | 0.9 | 0.00 | 0.02 | 0.02 | 85 | 1021.1 |
| 20260901193547 | 58 | 117 | 0.0 | 0.9 | 0.00 | 0.02 | 0.02 | 86 | 1021.0 |
| 20260901193046 | 58 | 117 | 0.0 | 0.0 | 0.00 | 0.02 | 0.02 | 85 | 1021.0 |
| 20260901192545 | 58 | 117 | 0.0 | 0.0 | 0.00 | 0.02 | 0.02 | 85 | 1021.0 |
| 20260901192051 | 58 | 117 | 0.0 | 0.0 | 0.00 | 0.02 | 0.02 | 86 | 1020.9 |
| 20260901191546 | 58 | 117 | 0.0 | 0.0 | 0.00 | 0.02 | 0.02 | 86 | 1021.0 |
| 20260901191045 | 58 | 117 | 0.0 | 0.0 | 0.00 | 0.02 | 0.02 | 85 | 1020.9 |
| 20260901190546 | 58 | 117 | 0.0 | 0.0 | 0.00 | 0.02 | 0.02 | 85 | 1020.9 |
| 20260901185546 | 58 | 117 | 0.0 | 0.0 | 0.00 | 0.02 | 0.02 | 84 | 1021.0 |
| 20260901185048 | 58 | 117 | 0.0 | 1.7 | 0.00 | 0.02 | 0.02 | 84 | 1020.9 |
| 20260901184544 | 58 | 117 | 0.0 | 1.7 | 0.00 | 0.02 | 0.02 | 84 | 1020.8 |
| 20260901184044 | 58 | 117 | 0.9 | 1.7 | 0.00 | 0.02 | 0.02 | 83 | 1020.8 |
| 20260901183548 | 59 | 117 | 0.0 | 1.7 | 0.00 | 0.02 | 0.02 | 83 | 1020.8 |
| 20260901183048 | 59 | 117 | 0.9 | 1.7 | 0.00 | 0.02 | 0.02 | 83 | 1020.7 |
| 20260901182544 | 59 | 117 | 0.9 | 1.7 | 0.00 | 0.02 | 0.02 | 83 | 1020.6 |
| 20260901182044 | 59 | 117 | 0.9 | 1.7 | 0.00 | 0.02 | 0.02 | 83 | 1020.6 |
| 20260901181550 | 59 | 117 | 0.9 | 1.7 | 0.00 | 0.02 | 0.02 | 82 | 1020.5 |
| 20260901181043 | 59 | 117 | 0.9 | 1.7 | 0.00 | 0.02 | 0.02 | 82 | 1020.5 |
| 20260901180543 | 59 | 117 | 0.0 | 1.7 | 0.00 | 0.02 | 0.02 | 81 | 1020.4 |
| 20260901180043 | 60 | 117 | 0.0 | 0.0 | 0.00 | 0.02 | 0.02 | 82 | 1020.3 |
| 20260901175543 | 60 | 117 | 0.0 | 0.0 | 0.00 | 0.02 | 0.02 | 82 | 1020.3 |
| 20260901175042 | 60 | 117 | 0.0 | 0.0 | 0.00 | 0.02 | 0.02 | 81 | 1020.3 |
| 20260901174542 | 60 | 117 | 0.0 | 1.7 | 0.00 | 0.02 | 0.02 | 81 | 1020.2 |
| 20260901174045 | 61 | 117 | 0.0 | 1.7 | 0.00 | 0.02 | 0.02 | 81 | 1020.2 |
| 20260901173541 | 61 | 117 | 0.0 | 0.0 | 0.00 | 0.02 | 0.02 | 80 | 1020.0 |
| 20260901173102 | 62 | 117 | 0.0 | 1.7 | 0.00 | 0.02 | 0.02 | 79 | 1020.3 |
| 20260901172541 | 62 | 117 | 0.9 | 3.5 | 0.00 | 0.02 | 0.02 | 79 | 1020.1 |
| 20260901172044 | 63 | 121 | 0.9 | 3.5 | 0.00 | 0.02 | 0.02 | 78 | 1020.1 |
| 20260901171541 | 64 | 119 | 0.0 | 1.7 | 0.00 | 0.02 | 0.02 | 76 | 1020.2 |
| 20260901171047 | 65 | 119 | 0.0 | 2.6 | 0.00 | 0.02 | 0.02 | 75 | 1020.2 |
| 20260901170541 | 66 | 119 | 0.9 | 2.6 | 0.00 | 0.02 | 0.02 | 72 | 1020.2 |
| 20260901170041 | 66 | 214 | 0.0 | 1.7 | 0.00 | 0.02 | 0.02 | 72 | 1020.3 |
| 20260901165540 | 66 | 216 | 0.0 | 0.9 | 0.00 | 0.02 | 0.02 | 74 | 1020.2 |
| 20260901165041 | 67 | 216 | 0.0 | 1.7 | 0.00 | 0.02 | 0.02 | 74 | 1020.2 |
| 20260901164541 | 67 | 214 | 0.0 | 2.6 | 0.00 | 0.02 | 0.02 | 73 | 1020.2 |
| 20260901164040 | 67 | 214 | 0.9 | 2.6 | 0.00 | 0.02 | 0.02 | 72 | 1020.1 |
| 20260901163542 | 67 | 240 | 0.0 | 1.7 | 0.00 | 0.02 | 0.02 | 74 | 1020.2 |
| 20260901163040 | 66 | 241 | 0.0 | 1.7 | 0.00 | 0.02 | 0.02 | 76 | 1020.1 |
| 20260901162539 | 66 | 241 | 0.0 | 0.0 | 0.00 | 0.02 | 0.02 | 76 | 1020.2 |
| 20260901162039 | 66 | 241 | 0.0 | 0.0 | 0.00 | 0.02 | 0.02 | 77 | 1020.2 |
| 20260901161539 | 66 | 241 | 0.0 | 1.7 | 0.00 | 0.02 | 0.02 | 75 | 1020.0 |
| 20260901161039 | 66 | 241 | 0.0 | 4.3 | 0.00 | 0.02 | 0.02 | 74 | 1020.1 |
| 20260901160539 | 67 | 241 | 1.7 | 4.3 | 0.00 | 0.02 | 0.02 | 71 | 1020.0 |
| 20260901160043 | 67 | 267 | 0.9 | 3.5 | 0.00 | 0.02 | 0.02 | 72 | 1020.0 |
| 20260901155538 | 67 | 206 | 0.0 | 2.6 | 0.00 | 0.02 | 0.02 | 75 | 1020.0 |
| 20260901155038 | 66 | 227 | 0.0 | 2.6 | 0.00 | 0.02 | 0.02 | 75 | 1020.1 |
| 20260901154541 | 66 | 255 | 0.0 | 1.7 | 0.00 | 0.02 | 0.02 | 73 | 1020.1 |
| 20260901154038 | 66 | 255 | 0.0 | 0.9 | 0.00 | 0.02 | 0.02 | 74 | 1020.1 |
| 20260901153537 | 66 | 257 | 0.0 | 0.0 | 0.00 | 0.02 | 0.02 | 73 | 1020.1 |
| 20260901153041 | 66 | 257 | 0.0 | 3.5 | 0.00 | 0.02 | 0.02 | 73 | 1020.1 |
| 20260901152537 | 66 | 242 | 0.0 | 3.5 | 0.00 | 0.02 | 0.02 | 72 | 1020.1 |
| 20260901152037 | 67 | 208 | 1.7 | 7.8 | 0.00 | 0.02 | 0.02 | 70 | 1020.2 |
| 20260901151537 | 68 | 247 | 2.6 | 7.8 | 0.00 | 0.02 | 0.02 | 69 | 1020.1 |
| 20260901151037 | 68 | 265 | 0.0 | 4.3 | 0.00 | 0.02 | 0.02 | 70 | 1020.2 |
| 20260901150536 | 68 | 215 | 0.9 | 7.0 | 0.00 | 0.02 | 0.02 | 71 | 1020.1 |
| 20260901150036 | 68 | 250 | 1.7 | 7.0 | 0.00 | 0.02 | 0.02 | 70 | 1020.2 |
| 20260901145536 | 67 | 262 | 1.7 | 6.1 | 0.00 | 0.02 | 0.02 | 71 | 1020.2 |
| 20260901145035 | 66 | 178 | 2.6 | 6.1 | 0.00 | 0.02 | 0.02 | 73 | 1020.4 |
| 20260901144538 | 66 | 62 | 0.0 | 3.5 | 0.00 | 0.02 | 0.02 | 75 | 1020.4 |
| 20260901144035 | 65 | 214 | 0.0 | 2.6 | 0.00 | 0.02 | 0.02 | 79 | 1020.3 |
| 20260901143535 | 65 | 153 | 0.9 | 2.6 | 0.00 | 0.02 | 0.02 | 75 | 1020.2 |
| 20260901143041 | 65 | 229 | 0.0 | 1.7 | 0.00 | 0.02 | 0.02 | 77 | 1020.3 |
| 20260901142535 | 65 | 229 | 0.0 | 1.7 | 0.00 | 0.02 | 0.02 | 76 | 1020.2 |
| 20260901142034 | 65 | 229 | 0.0 | 2.6 | 0.00 | 0.02 | 0.02 | 74 | 1020.3 |
| 20260901141543 | 66 | 220 | 0.0 | 2.6 | 0.00 | 0.02 | 0.02 | 72 | 1020.4 |
| 20260901141037 | 66 | 236 | 0.0 | 6.1 | 0.01 | 0.02 | 0.02 | 74 | 1020.4 |
| 20260901140535 | 67 | 236 | 1.7 | 6.1 | 0.01 | 0.02 | 0.02 | 70 | 1020.3 |
| 20260901140036 | 67 | 237 | 0.0 | 4.3 | 0.01 | 0.02 | 0.02 | 72 | 1020.3 |
| 20260901135534 | 67 | 209 | 0.9 | 4.3 | 0.01 | 0.02 | 0.02 | 70 | 1020.3 |
| 20260901135034 | 67 | 224 | 0.0 | 4.3 | 0.01 | 0.02 | 0.02 | 70 | 1020.4 |
| 20260901134536 | 67 | 239 | 0.9 | 4.3 | 0.01 | 0.02 | 0.02 | 69 | 1020.4 |
| 20260901134033 | 67 | 193 | 0.0 | 5.2 | 0.01 | 0.02 | 0.02 | 76 | 1020.5 |
| 20260901133533 | 66 | 240 | 1.7 | 8.7 | 0.01 | 0.02 | 0.02 | 72 | 1020.5 |
| 20260901133040 | 66 | 229 | 2.6 | 8.7 | 0.01 | 0.02 | 0.02 | 70 | 1020.5 |
| 20260901132537 | 66 | 191 | 1.7 | 8.7 | 0.01 | 0.02 | 0.02 | 70 | 1020.6 |
| 20260901132033 | 66 | 216 | 1.7 | 8.7 | 0.01 | 0.02 | 0.02 | 71 | 1020.7 |
| 20260901131535 | 66 | 234 | 0.9 | 7.0 | 0.01 | 0.02 | 0.02 | 74 | 1020.6 |
| 20260901131034 | 66 | 189 | 2.6 | 7.0 | 0.00 | 0.01 | 0.01 | 71 | 1020.7 |
| 20260901130532 | 67 | 173 | 0.9 | 4.3 | 0.00 | 0.01 | 0.01 | 70 | 1020.6 |
| 20260901130031 | 67 | 192 | 1.7 | 7.0 | 0.00 | 0.01 | 0.01 | 68 | 1020.6 |
| 20260901125530 | 68 | 229 | 1.7 | 8.7 | 0.00 | 0.01 | 0.01 | 70 | 1020.5 |
| 20260901125029 | 67 | 230 | 1.7 | 9.6 | 0.00 | 0.01 | 0.01 | 72 | 1020.6 |
| 20260901124528 | 67 | 263 | 3.5 | 7.8 | 0.00 | 0.01 | 0.01 | 72 | 1020.8 |
| 20260901124026 | 66 | 239 | 1.7 | 7.0 | 0.00 | 0.01 | 0.01 | 74 | 1020.7 |
| 20260901123525 | 65 | 234 | 1.7 | 6.1 | 0.00 | 0.01 | 0.01 | 76 | 1020.8 |
| 20260901123024 | 64 | 236 | 0.9 | 6.1 | 0.00 | 0.01 | 0.01 | 76 | 1020.7 |
| 20260901122524 | 64 | 242 | 0.9 | 6.1 | 0.00 | 0.01 | 0.01 | 76 | 1020.8 |
| 20260901122023 | 64 | 273 | 1.7 | 6.1 | 0.00 | 0.01 | 0.01 | 75 | 1020.8 |
| 20260901121524 | 64 | 284 | 1.7 | 5.2 | 0.00 | 0.01 | 0.01 | 74 | 1020.9 |
| 20260901121024 | 64 | 238 | 2.6 | 8.7 | 0.00 | 0.01 | 0.01 | 75 | 1020.9 |
| 20260901120526 | 63 | 259 | 2.6 | 8.7 | 0.00 | 0.01 | 0.01 | 75 | 1020.8 |
| 20260901120023 | 64 | 279 | 0.0 | 4.3 | 0.00 | 0.01 | 0.01 | 77 | 1020.9 |
| 20260901115525 | 64 | 91 | 1.7 | 6.1 | 0.00 | 0.01 | 0.01 | 75 | 1020.9 |
| 20260901115023 | 64 | 271 | 2.6 | 6.1 | 0.00 | 0.01 | 0.01 | 76 | 1021.0 |
| 20260901114522 | 63 | 201 | 1.7 | 6.1 | 0.00 | 0.01 | 0.01 | 79 | 1021.0 |
| 20260901114024 | 62 | 227 | 1.7 | 6.1 | 0.00 | 0.01 | 0.01 | 78 | 1020.9 |
| 20260901113521 | 62 | 196 | 1.7 | 7.0 | 0.00 | 0.01 | 0.01 | 76 | 1020.9 |
| 20260901113021 | 63 | 226 | 1.7 | 6.1 | 0.00 | 0.01 | 0.01 | 76 | 1020.9 |
| 20260901112520 | 63 | 170 | 2.6 | 7.0 | 0.00 | 0.01 | 0.01 | 75 | 1020.9 |
| 20260901112021 | 64 | 257 | 0.9 | 6.1 | 0.00 | 0.01 | 0.01 | 75 | 1020.8 |
| 20260901111520 | 64 | 181 | 2.6 | 7.8 | 0.00 | 0.01 | 0.01 | 76 | 1020.7 |
| 20260901111019 | 64 | 265 | 1.7 | 11.3 | 0.00 | 0.01 | 0.01 | 78 | 1020.7 |
| 20260901110518 | 64 | 217 | 4.3 | 11.3 | 0.00 | 0.01 | 0.01 | 75 | 1020.7 |
| 20260901110033 | 63 | 298 | 4.3 | 7.0 | 0.00 | 0.01 | 0.01 | 77 | 1020.7 |
| 20260901105517 | 63 | 286 | 2.6 | 10.4 | 0.00 | 0.01 | 0.01 | 76 | 1020.6 |
| 20260901105018 | 63 | 264 | 3.5 | 10.4 | 0.00 | 0.01 | 0.01 | 76 | 1020.6 |
| 20260901104516 | 63 | 255 | 2.6 | 7.0 | 0.00 | 0.01 | 0.01 | 78 | 1020.7 |
| 20260901104014 | 62 | 244 | 2.6 | 8.7 | 0.00 | 0.01 | 0.01 | 80 | 1020.7 |
| 20260901103514 | 62 | 247 | 1.7 | 9.6 | 0.00 | 0.01 | 0.01 | 82 | 1020.7 |
| 20260901103013 | 62 | 229 | 3.5 | 9.6 | 0.00 | 0.01 | 0.01 | 79 | 1020.7 |
| 20260901102513 | 62 | 230 | 2.6 | 7.8 | 0.00 | 0.01 | 0.01 | 78 | 1020.6 |
| 20260901102013 | 62 | 279 | 0.9 | 7.8 | 0.00 | 0.01 | 0.01 | 77 | 1020.6 |
| 20260901101512 | 63 | 307 | 1.7 | 8.7 | 0.00 | 0.01 | 0.01 | 78 | 1020.5 |
| 20260901101013 | 63 | 221 | 1.7 | 8.7 | 0.00 | 0.01 | 0.01 | 79 | 1020.5 |
| 20260901100511 | 62 | 298 | 2.6 | 10.4 | 0.00 | 0.01 | 0.01 | 79 | 1020.5 |
| 20260901100009 | 62 | 304 | 2.6 | 10.4 | 0.00 | 0.01 | 0.01 | 79 | 1020.5 |
| 20260901095508 | 62 | 253 | 4.3 | 8.7 | 0.00 | 0.01 | 0.01 | 78 | 1020.6 |
| 20260901095009 | 62 | 201 | 3.5 | 7.8 | 0.00 | 0.01 | 0.01 | 80 | 1020.5 |
| 20260901094507 | 61 | 230 | 1.7 | 5.2 | 0.00 | 0.01 | 0.01 | 82 | 1020.6 |
| 20260901094007 | 61 | 232 | 0.9 | 4.3 | 0.00 | 0.01 | 0.01 | 83 | 1020.5 |
| 20260901093507 | 61 | 209 | 0.9 | 8.7 | 0.00 | 0.01 | 0.01 | 81 | 1020.5 |
| 20260901093005 | 61 | 220 | 3.5 | 8.7 | 0.00 | 0.01 | 0.01 | 80 | 1020.5 |
| 20260901092505 | 61 | 196 | 0.9 | 7.0 | 0.00 | 0.01 | 0.01 | 82 | 1020.4 |
| 20260901092005 | 61 | 237 | 2.6 | 7.8 | 0.00 | 0.01 | 0.01 | 80 | 1020.3 |
| 20260901091504 | 61 | 196 | 2.6 | 7.8 | 0.00 | 0.01 | 0.01 | 81 | 1020.2 |
| 20260901091003 | 61 | 264 | 2.6 | 7.0 | 0.00 | 0.01 | 0.01 | 81 | 1020.3 |
| 20260901090503 | 61 | 219 | 1.7 | 7.8 | 0.00 | 0.01 | 0.01 | 82 | 1020.2 |
| 20260901090011 | 60 | 268 | 4.3 | 7.8 | 0.00 | 0.01 | 0.01 | 82 | 1020.2 |
| 20260901085504 | 60 | 263 | 2.6 | 6.1 | 0.00 | 0.01 | 0.01 | 84 | 1020.2 |
| 20260901085002 | 59 | 275 | 2.6 | 6.1 | 0.00 | 0.01 | 0.01 | 84 | 1020.2 |
| 20260901084501 | 59 | 190 | 0.9 | 8.7 | 0.00 | 0.01 | 0.01 | 86 | 1020.3 |
| 20260901084003 | 59 | 253 | 2.6 | 9.6 | 0.00 | 0.01 | 0.01 | 84 | 1020.1 |
| 20260901083501 | 59 | 240 | 1.7 | 7.0 | 0.00 | 0.01 | 0.01 | 85 | 1020.1 |
| 20260901083100 | 59 | 205 | 1.7 | 8.7 | 0.00 | 0.01 | 0.01 | 85 | 1019.9 |
| 20260901082601 | 59 | 311 | 4.3 | 9.6 | 0.00 | 0.01 | 0.01 | 84 | 1019.9 |
| 20260901082059 | 59 | 296 | 3.5 | 9.6 | 0.00 | 0.01 | 0.01 | 84 | 1019.8 |
| 20260901081613 | 59 | 315 | 3.5 | 9.6 | 0.00 | 0.01 | 0.01 | 86 | 1020.0 |
| 20260901081103 | 59 | 183 | 0.9 | 7.0 | 0.00 | 0.01 | 0.01 | 86 | 1019.6 |
| 20260901080559 | 59 | 171 | 2.6 | 7.0 | 0.00 | 0.01 | 0.01 | 86 | 1019.8 |
| 20260901075600 | 58 | 236 | 2.6 | 9.6 | 0.00 | 0.12 | 0.01 | 88 | 1019.7 |
| 20260901075057 | 58 | 244 | 2.6 | 6.1 | 0.00 | 0.12 | 0.01 | 89 | 1019.7 |
| 20260901074556 | 57 | 204 | 2.6 | 7.8 | 0.00 | 0.12 | 0.01 | 88 | 1019.6 |
| 20260901074055 | 57 | 253 | 1.7 | 7.8 | 0.00 | 0.12 | 0.01 | 89 | 1019.5 |
| 20260901073555 | 57 | 186 | 1.7 | 4.3 | 0.00 | 0.12 | 0.01 | 89 | 1019.5 |
| 20260901073056 | 57 | 252 | 0.9 | 6.1 | 0.00 | 0.12 | 0.01 | 90 | 1019.5 |
| 20260901072558 | 57 | 231 | 1.7 | 5.2 | 0.00 | 0.12 | 0.01 | 90 | 1019.3 |
| 20260901072055 | 57 | 193 | 1.7 | 5.2 | 0.00 | 0.12 | 0.01 | 90 | 1019.4 |
| 20260901071601 | 56 | 220 | 1.7 | 7.8 | 0.00 | 0.12 | 0.01 | 90 | 1019.3 |
| 20260901071053 | 56 | 237 | 2.6 | 7.0 | 0.00 | 0.12 | 0.01 | 90 | 1019.3 |
| 20260901070553 | 56 | 284 | 0.0 | 4.3 | 0.00 | 0.12 | 0.01 | 90 | 1019.3 |
| 20260901070100 | 56 | 268 | 0.9 | 6.1 | 0.00 | 0.12 | 0.01 | 90 | 1019.2 |
| 20260901065554 | 56 | 239 | 1.7 | 7.0 | 0.00 | 0.14 | 0.01 | 90 | 1019.2 |
| 20260901065053 | 56 | 247 | 2.6 | 6.1 | 0.00 | 0.14 | 0.01 | 91 | 1019.3 |
| 20260901064552 | 56 | 285 | 1.7 | 7.0 | 0.00 | 0.14 | 0.01 | 91 | 1019.2 |
| 20260901064051 | 56 | 198 | 1.7 | 5.2 | 0.01 | 0.14 | 0.01 | 91 | 1019.2 |
| 20260901063551 | 56 | 157 | 0.0 | 7.0 | 0.01 | 0.14 | 0.01 | 92 | 1019.0 |
| 20260901063050 | 55 | 236 | 1.7 | 7.0 | 0.01 | 0.14 | 0.01 | 92 | 1019.1 |
| 20260901062549 | 55 | 253 | 1.7 | 6.1 | 0.01 | 0.14 | 0.01 | 92 | 1019.1 |
| 20260901062050 | 55 | 239 | 1.7 | 6.1 | 0.01 | 0.14 | 0.01 | 92 | 1019.1 |
| 20260901061548 | 55 | 272 | 0.9 | 4.3 | 0.01 | 0.14 | 0.01 | 92 | 1019.0 |
| 20260901061047 | 55 | 248 | 1.7 | 6.1 | 0.01 | 0.14 | 0.01 | 92 | 1019.0 |